Find OneWeb SL0698

NORAD ID: 61604 Int'l Des: 2024-188 Owner: ONEWEBE Country: UK Constellation: oneweb operational
LEOCIRCULARPOLARONEWEB_TYPE

当前视图

正在加载3D地球...

About OneWeb SL0698

OneWeb SL0698 (NORAD 61604) is a oneweb constellation satellite launched Oct 20, 2024 by ONEWEBE of UK. It operates in LEO, CIRCULAR, POLAR, ONEWEB_TYPE orbit with a mass of 148.00 kg.

关于 OneWeb SL0698

正在加载描述...

即将过境

Passes for default location (London). Set your location on the main map for personalized predictions.

高度历史

Loading altitude history...

两行轨道根数

1 61604U 24188L 26169.95748024 .00000550 00000-0 15162-2 0 9990
2 61604 87.8883 20.7284 0001038 123.5735 236.5493 13.11416380 84701
Epoch: Jun 18, 2026 • Age: 8 hours

当前状态

高度 1223.0 km
速度 7.24 km/s
星下点 -13.35°S, 175.66°W
发射日期 Oct 20, 2024
运行时间 1.6 years
类型 internet

技术详情

分类 Payload
质量 148.00 kg
干质量 140.00 kg
总质量 148.00 kg
长度 1.30 m
直径 1.00 m
跨度 5.00 m
形状 Trapezoid+2 pan
制造商 ONEWUS
平台类型 ARROW
阶段状态 In Orbit
所有者/国家 ONEWEBE/UK

Most Searched